Date/Time (UTC),PHv2,PWv2,PTv2,PSv3,PHv3,PWv3,PTv3,MESH,VIL,CompRef,Ref -20C,Flash Rate,Max Flash Density,LJA sigma-level,Max 0-2km AzShear,LLAZ 98th%,MLAZ 98th%,MUCAPE,MLCAPE,CAPE -10C to -30C,MLCIN,SRH 0-1km AGL,EBShear,MeanWind 0-1km AGL,Norm. Sat. Growth Rate,ICP,PWAT,WBZ,AvgBeamHgt,STP(eff),DCAPE,ESRH
2021/05/26 17:34,5,2,0,15,11,5,0,0.13,9,51.5,44,9,0.41,0,2,2,2,3656,3078,819,15,35,45,19,2.3,0,1.3,10.0,5.69,0.5,1063,62
2021/05/26 17:36,9,3,0,21,21,4,0,0.22,12,52.0,46,15,0.49,0,2,2,5,3623,3038,819,15,36,45,19,0,0,1.3,10.0,5.71,0.5,1063,62
2021/05/26 17:38,10,3,0,27,27,8,1,0.3,13,54.5,46,15,0.49,0,6,3,5,3606,3035,809,18,37,46,19,0,2,1.3,10.0,5.85,0.5,1063,62
2021/05/26 17:40,21,9,0,32,32,8,1,0.34,13,54.5,48,26,0.62,0,6,4,3,3606,3035,818,15,37,45,19,0,4,1.3,10.0,5.77,0.5,1063,62
2021/05/26 17:42,61,52,0,49,42,18,2,0.54,22,56.0,52,50,1.15,0,6,5,5,3601,2923,819,14,38,45,18,0,39,1.3,10.0,5.7,0.5,1063,62
2021/05/26 17:44,85,76,0,66,57,24,3,0.89,33,61.5,56,50,1.15,0,6,5,5,3535,2923,806,18,40,45,18,0,38,1.3,10.0,5.92,0.5,1063,62
2021/05/26 17:46,93,82,0,68,59,25,3,1.19,41,61.5,58,50,1.15,0,6,5,5,3535,2923,806,17,40,45,18,0,38,1.3,10.0,5.91,0.5,1063,62
2021/05/26 17:48,95,81,0,75,68,21,3,1.37,48,64.5,60,50,1.15,1.8,5,5,3,3535,2806,808,14,41,45,18,0,57,1.3,10.0,5.84,0.5,1063,62
2021/05/26 17:50,96,82,1,82,70,32,4,1.56,48,66.5,62,47,1.15,-1,7,5,5,3505,2822,805,16,41,45,18,0,53,1.3,10.0,5.92,0.5,1063,62
2021/05/26 17:52,96,82,1,86,76,39,6,1.56,48,67.0,62,47,1.15,0.0,7,5,5,3505,2806,805,16,42,45,18,0,90,1.3,10.0,5.93,0.5,1063,62
2021/05/26 17:54,96,82,1,85,71,38,6,1.56,46,67.0,60,47,1.15,0.6,6,5,5,3505,2802,806,15,42,45,18,0,85,1.3,10.0,5.88,0.5,1063,62
2021/05/26 17:56,94,81,1,84,72,44,6,1.43,46,67.0,61,37,1.15,0,9,5,5,3505,2794,807,15,42,45,18,0,86,1.2,10.0,5.89,0.5,956,64
2021/05/26 17:58,96,82,1,85,76,42,7,1.39,57,64.5,62,56,1.15,1.1,9,6,6,3505,2771,807,15,42,45,18,0,98,1.2,10.0,5.92,0.4,883,64
2021/05/26 18:00,97,87,2,91,83,42,15,1.5,57,65.5,60,56,1.15,-1,9,6,5,4233,3622,1127,1,47,49,21,0,98,1.5,9.1,5.94,1.1,852,97
2021/05/26 18:02,97,89,3,92,85,41,17,1.51,57,65.5,62,56,1.15,0.5,9,6,8,4229,3629,1131,1,47,49,21,0,99,1.5,9.1,6.0,1.1,852,97
2021/05/26 18:04,97,89,3,92,84,40,17,1.51,54,66.0,61,56,1.15,0,10,5,8,4241,3629,1131,1,47,49,21,0,99,1.5,9.1,6.03,1.1,852,97
2021/05/26 18:06,96,87,3,92,83,40,17,1.51,54,66.0,62,42,1.15,0,10,5,7,4241,3636,1139,1,47,49,21,0,99,1.5,9.1,6.08,1.1,852,97
2021/05/26 18:08,96,87,3,89,82,38,16,1.49,54,66.0,61,46,1.15,0.8,9,5,6,4225,3639,1140,1,47,49,21,0,97,1.5,9.1,6.16,1.1,852,97
2021/05/26 18:10,96,87,3,90,83,52,20,1.49,51,65.0,60,46,1.15,0,9,5,7,4231,3639,1140,1,47,49,21,0,97,1.5,9.1,6.24,1.1,852,97
2021/05/26 18:12,96,87,3,88,78,46,19,1.46,50,65.0,58,46,1.15,0.1,9,5,6,4234,3639,1143,1,48,49,21,0,98,1.5,9.1,6.27,1.1,852,97
2021/05/26 18:14,95,83,1,86,77,41,17,1.31,49,65.0,59,46,0.65,-1,12,5,5,4241,3639,1144,1,49,49,21,0,96,1.5,9.1,6.32,1.1,852,97
2021/05/26 18:16,95,83,1,85,79,33,11,1.31,48,64.0,58,41,0.65,0.0,5,4,6,4241,3639,1146,1,50,50,21,0,96,1.5,9.1,6.35,1.1,852,97
2021/05/26 18:18,95,83,1,84,79,30,10,1.31,48,64.0,60,41,0.65,0.7,7,5,6,4263,3639,1158,2,50,50,21,0,94,1.5,9.1,6.44,1.1,852,97
2021/05/26 18:20,94,89,3,88,83,33,16,1.31,48,62.5,60,36,0.65,0,10,5,9,4279,3639,1161,2,51,50,21,0,96,1.5,9.1,6.48,1.1,852,97
2021/05/26 18:22,93,87,2,86,81,33,16,1.27,46,62.0,58,36,0.65,-2,10,5,9,4325,3656,1180,1,54,50,21,0,97,1.5,9.1,6.33,1.1,852,97
2021/05/26 18:24,93,87,3,87,81,30,16,1.26,49,63.0,58,36,0.65,0,6,6,10,4325,3656,1185,2,54,50,21,0,98,1.5,9.1,6.28,1.1,852,97
2021/05/26 18:26,88,85,1,76,75,21,8,1.15,49,63.0,56,32,0.65,0,6,6,7,4337,3656,1185,2,54,50,21,0,98,1.5,9.1,6.28,1.1,852,97
2021/05/26 18:28,80,77,1,76,75,21,8,1.15,49,63.0,58,19,0.65,0,6,6,7,4337,3646,1187,2,54,50,21,0,97,1.5,9.1,6.32,1.1,852,97
2021/05/26 18:30,86,81,1,80,77,27,7,1.15,49,60.5,58,29,0.67,4.1,6,5,6,4355,3639,1192,2,56,50,21,0,97,1.5,9.1,6.39,1.1,852,97
2021/05/26 18:32,88,81,1,84,79,30,9,1.15,48,61.5,58,29,0.67,0,7,5,6,4376,3636,1192,2,57,49,20,0,98,1.5,9.2,6.39,1.1,852,97
2021/05/26 18:34,89,81,1,80,77,28,9,1.22,47,61.5,59,29,0.67,0.6,7,5,5,4379,3620,1192,2,57,49,20,0,98,1.4,9.2,6.4,1.1,852,97
2021/05/26 18:36,89,83,1,83,78,32,13,1.22,47,63.0,58,29,0.67,0,7,5,7,4389,3610,1192,2,58,49,20,0,98,1.4,9.2,6.42,1.1,852,97
2021/05/26 18:38,95,92,7,89,83,38,21,1.25,46,63.0,60,46,0.67,3.0,11,7,10,4389,3610,1192,2,58,49,20,0,99,1.4,9.2,6.39,1.1,852,97
2021/05/26 18:40,96,95,7,91,84,39,21,1.38,51,63.0,60,46,0.67,0,11,7,10,4389,3620,1192,2,58,49,20,0,99,1.4,9.2,6.36,1.1,852,97
2021/05/26 18:42,96,95,7,91,84,39,21,1.38,51,63.0,58,46,0.67,0.2,11,7,10,4392,3620,1187,2,58,49,20,0,99,1.4,9.2,6.33,1.1,852,97
2021/05/26 18:44,96,92,5,88,82,29,17,1.38,52,62.5,57,46,0.67,0,10,7,8,4408,3610,1177,2,58,49,20,0,99,1.4,9.2,6.28,1.1,852,97
2021/05/26 18:46,93,89,8,90,82,45,23,1.27,54,62.0,58,34,0.67,0,10,7,8,4410,3610,1177,2,58,49,20,0,99,1.4,9.2,6.27,1.1,852,97
2021/05/26 18:48,95,89,5,88,79,38,21,1.45,54,61.0,58,36,0.67,0.9,10,7,7,4413,3610,1176,2,58,49,20,0,99,1.4,9.2,6.24,1.0,774,92
2021/05/26 18:50,98,95,6,93,86,43,26,2.22,70,65.0,64,36,0.67,0,9,7,7,4423,3581,1173,2,58,49,20,0,99,1.4,9.2,6.29,1.0,774,92
2021/05/26 18:52,98,95,5,94,87,42,22,2.33,71,65.0,64,36,0.67,0.1,11,8,8,4426,3579,1172,2,58,49,20,0,99,1.4,9.2,6.29,1.0,774,92
2021/05/26 18:54,98,95,7,94,88,46,23,2.33,71,65.0,64,55,0.85,2.6,11,8,8,4426,3579,1172,2,58,49,20,0,99,1.4,9.2,6.29,1.0,774,92
2021/05/26 18:56,98,95,7,94,89,50,23,2.33,71,67.0,64,55,0.85,0,11,8,8,4435,3572,1169,2,59,49,20,0,99,1.4,9.2,6.34,1.0,774,92
2021/05/26 18:58,98,95,13,94,89,50,23,2.33,71,67.0,64,55,0.85,0,11,8,8,4483,3612,1183,8,85,49,21,0,99,1.6,9.2,6.34,1.0,774,92
2021/05/26 19:00,99,95,16,95,89,55,29,2.28,65,67.0,62,62,0.85,2.0,11,8,9,4486,3612,1175,9,84,49,21,0,100,1.6,9.2,6.33,2.5,896,149
2021/05/26 19:02,99,95,21,94,88,56,32,2.28,65,67.0,62,62,0.85,-2,13,8,9,4494,3615,1175,9,84,49,21,0,100,1.6,9.2,6.34,2.5,896,149
2021/05/26 19:04,99,95,21,94,87,52,32,1.99,65,66.5,60,62,0.85,0.9,13,8,7,4494,3612,1170,9,84,49,21,0,100,1.6,9.2,6.4,2.5,896,149
2021/05/26 19:06,98,95,21,91,83,46,31,1.65,63,64.0,60,62,0.85,0,13,8,6,4494,3604,1166,9,85,49,21,0,100,1.6,9.3,6.46,2.5,896,149
2021/05/26 19:08,97,95,10,90,82,47,31,1.52,59,63.0,58,52,0.85,0.4,13,7,5,4501,3612,1170,9,83,49,21,0,100,1.6,9.3,6.39,2.5,896,149
2021/05/26 19:10,98,89,2,90,80,43,27,1.52,58,63.0,58,70,0.85,1.0,7,5,6,4509,3618,1170,9,81,48,21,0,99,1.6,9.3,6.33,2.5,896,149
2021/05/26 19:12,98,89,2,88,79,36,26,1.52,61,62.0,58,70,0.85,0,6,5,5,4516,3628,1169,9,79,48,21,0,99,1.6,9.3,6.29,2.5,896,149
2021/05/26 19:14,98,92,1,88,80,35,21,1.7,63,61.5,58,70,0.85,-1,6,5,5,4516,3628,1169,9,79,48,21,0,99,1.6,9.3,6.29,2.5,896,149
2021/05/26 19:16,99,89,1,91,84,39,22,2.3,63,64.5,63,70,0.85,0,7,5,6,4516,3628,1169,9,79,48,21,0,100,1.6,9.3,6.3,2.5,896,149
2021/05/26 19:18,99,92,4,95,88,57,31,2.57,64,65.5,65,65,0.85,1.8,12,5,6,4516,3628,1166,9,81,48,21,0,100,1.6,9.3,6.37,2.5,896,149
2021/05/26 19:20,99,95,7,95,89,62,33,3.27,73,67.5,65,65,0.85,0,13,7,6,4516,3628,1166,9,79,48,21,0,100,1.6,9.3,6.36,2.5,896,149
2021/05/26 19:22,99,95,10,96,90,66,33,3.55,73,69.0,68,80,0.85,1.9,13,7,7,4509,3628,1166,8,80,48,21,0,100,1.6,9.3,6.37,2.5,896,149
2021/05/26 19:24,99,95,9,95,89,62,32,3.55,76,69.0,68,80,0.85,-1,13,7,6,4516,3633,1166,8,79,48,21,0,100,1.6,9.3,6.37,2.5,896,149
2021/05/26 19:26,99,95,11,96,90,70,37,3.55,76,71.0,68,80,0.71,0,16,7,7,4516,3633,1166,8,79,48,21,0,100,1.6,9.3,6.4,2.5,896,149
2021/05/26 19:28,99,95,11,96,90,70,37,3.67,76,71.0,68,80,0.71,0.0,16,7,7,4525,3633,1166,8,77,48,21,0,100,1.6,9.3,6.4,2.5,896,149
2021/05/26 19:30,98,95,12,96,90,70,37,3.72,74,71.0,68,52,0.71,0.2,14,8,7,4525,3633,1166,8,77,48,21,0,100,1.6,9.3,6.43,2.5,896,149
2021/05/26 19:32,99,95,11,96,90,70,38,3.91,70,70.0,70,69,0.61,0.9,14,8,6,4521,3628,1165,8,77,48,21,0,99,1.6,9.3,6.51,2.5,896,149
2021/05/26 19:34,99,95,14,96,90,70,37,4.11,70,71.5,70,92,0.65,1.5,15,8,8,4521,3628,1165,8,77,48,21,0,99,1.6,9.3,6.57,2.5,896,149
2021/05/26 19:36,99,95,14,95,90,66,35,4.11,72,71.5,70,92,0.65,-3,15,8,7,4521,3628,1165,8,77,48,21,0,99,1.6,9.3,6.6,2.5,896,149
2021/05/26 19:38,99,95,14,95,90,64,34,4.11,72,71.5,70,92,0.65,1.2,12,8,7,4525,3628,1165,8,76,48,21,0,91,1.6,9.3,6.63,2.5,896,149
2021/05/26 19:40,99,95,13,95,89,59,28,3.67,72,71.5,66,92,0.65,-1,12,9,8,4526,3628,1165,8,75,48,21,0,91,1.6,9.3,6.66,2.5,896,149
2021/05/26 19:42,99,95,13,95,89,58,28,2.86,71,71.0,65,89,0.65,1.3,12,9,8,4527,3628,1165,8,75,48,21,0,91,1.6,9.3,6.66,2.5,896,145
2021/05/26 19:44,99,95,33,96,90,65,38,2.68,71,68.5,65,89,0.65,-1,16,10,10,4527,3648,1165,8,74,48,21,0,93,1.6,9.3,6.7,2.5,896,145
2021/05/26 19:46,99,95,48,95,90,64,39,2.64,71,68.0,64,89,0.65,0,22,14,13,4527,3648,1164,8,74,48,21,0,92,1.6,9.4,6.72,2.5,896,145
2021/05/26 19:48,99,95,48,95,89,62,41,2.61,71,66.0,64,89,0.65,1.1,22,14,13,4528,3654,1164,8,73,48,21,0,96,1.6,9.4,6.69,2.5,896,145
2021/05/26 19:50,99,95,48,95,89,62,39,2.35,66,65.5,63,75,0.65,0,22,14,11,4530,3654,1163,8,73,48,21,0,96,1.5,9.4,6.74,2.4,896,145
2021/05/26 19:52,99,95,50,95,88,63,41,2.08,62,66.0,63,77,0.65,1.0,22,13,10,4530,3671,1163,8,72,48,21,0,95,1.5,9.4,6.8,2.4,896,145
2021/05/26 19:54,99,95,44,95,88,66,41,2.07,63,66.5,62,77,0.65,-1,19,10,10,4530,3668,1165,8,72,48,21,0,96,1.5,9.4,6.83,2.4,896,145
2021/05/26 19:56,99,95,39,95,88,68,41,2.07,64,66.5,62,77,0.65,0.1,19,10,10,4535,3671,1165,7,71,48,21,0,96,1.5,9.4,6.88,2.4,853,145
2021/05/26 19:58,99,95,42,95,89,68,41,2.07,67,66.5,62,77,0.65,0.6,19,11,8,4535,3684,1165,7,71,47,21,0,95,1.5,9.4,6.93,2.4,853,145
2021/05/26 20:00,98,95,42,94,88,62,49,2.02,70,63.5,61,62,0.65,0,19,11,8,4535,3685,1166,7,71,47,21,0,95,1.5,9.4,6.96,3.1,837,180
2021/05/26 20:02,99,95,45,94,88,62,50,2.02,70,63.5,61,73,0.65,1.1,19,11,8,4436,3720,1160,17,129,53,21,0,96,1.5,9.4,6.96,3.1,837,180
2021/05/26 20:04,99,95,47,94,88,62,50,2.04,70,63.5,61,73,0.65,0,19,11,7,4448,3720,1161,17,132,53,21,0,97,1.5,9.4,6.92,3.1,837,180
2021/05/26 20:06,99,95,41,94,88,62,50,2.04,70,63.5,62,85,0.62,1.7,19,10,7,4447,3720,1160,17,132,53,21,0,97,1.5,9.4,6.94,3.1,837,180
2021/05/26 20:08,99,95,35,94,87,56,45,2.04,70,64.5,62,85,0.62,-2,19,10,7,4426,3756,1158,15,127,53,21,0,93,1.5,9.5,7.12,3.1,837,180
2021/05/26 20:10,99,95,64,94,88,56,47,2.0,70,64.5,60,85,0.62,0,20,11,11,4419,3756,1158,15,127,53,20,0,91,1.5,9.5,7.2,3.1,837,180
2021/05/26 20:12,99,95,64,94,87,56,46,1.89,68,64.5,60,85,0.62,0.3,20,11,10,4417,3756,1158,15,127,53,20,0,88,1.5,9.5,7.25,3.1,837,180
2021/05/26 20:14,98,95,67,93,86,56,45,1.65,67,61.0,60,74,0.69,1.2,20,11,10,4407,3741,1151,15,129,53,20,0,88,1.5,9.5,7.27,3.1,837,180
2021/05/26 20:16,98,95,59,93,86,56,44,1.75,68,61.0,58,74,0.69,-1,19,10,10,4404,3741,1149,15,129,53,20,0,86,1.5,9.5,7.32,3.1,837,180
2021/05/26 20:18,98,95,59,92,86,57,44,1.75,68,60.5,60,74,0.69,0,19,10,9,4398,3720,1144,14,129,53,20,0,92,1.5,9.5,7.39,3.1,837,180
2021/05/26 20:20,98,95,60,93,86,55,45,1.75,68,61.5,58,74,0.69,1.3,19,10,8,4393,3720,1144,14,132,53,20,0,91,1.5,9.5,7.43,3.1,837,180
2021/05/26 20:22,98,95,41,92,86,53,41,1.65,64,61.5,58,61,0.69,0,17,9,7,4383,3730,1139,14,130,53,20,0,88,1.5,9.5,7.54,3.1,837,180
2021/05/26 20:24,97,95,23,88,80,40,32,1.44,64,61.5,58,61,0.69,0.1,15,8,6,4376,3756,1139,14,129,53,20,0,88,1.5,9.5,7.59,3.1,837,180
2021/05/26 20:26,96,95,12,83,75,40,27,1.26,58,60.5,56,61,0.69,0,13,7,6,4358,3720,1137,14,132,53,20,0,91,1.5,9.5,7.66,3.1,837,180
2021/05/26 20:28,94,89,4,81,76,36,21,1.3,52,59.0,56,48,0.69,0.3,8,7,6,4353,3720,1137,14,132,53,20,0,91,1.5,9.5,7.73,3.1,837,180
2021/05/26 20:30,94,92,6,82,78,35,24,1.3,53,59.0,57,48,0.69,0,9,7,7,4358,3720,1137,14,132,53,20,0,94,1.5,9.5,7.71,3.1,837,180
2021/05/26 20:32,96,92,8,87,81,37,26,1.58,54,60.5,60,48,0.69,0.7,9,8,7,4353,3720,1137,14,132,53,20,0,98,1.5,9.5,7.69,3.1,837,180
2021/05/26 20:34,96,95,8,87,81,39,27,1.58,58,61.0,60,48,0.69,-1,9,8,7,4358,3756,1137,14,129,53,20,0,97,1.5,9.5,7.69,3.1,837,180
2021/05/26 20:36,99,95,12,94,89,49,32,2.13,67,65.5,63,95,0.69,11.2,9,8,8,4443,3766,1155,15,125,53,20,0,99,1.5,9.5,7.25,3.1,837,180
2021/05/26 20:38,99,95,10,93,88,47,32,2.35,67,65.5,62,95,0.69,-1,9,8,7,4443,3765,1155,15,125,53,20,0,97,1.5,9.5,7.25,3.1,837,180
2021/05/26 20:40,99,95,9,93,88,43,31,2.35,67,65.5,64,95,0.69,0,10,7,7,4426,3756,1155,15,125,53,20,0,97,1.5,9.5,7.29,3.1,837,180
2021/05/26 20:42,99,95,5,93,88,47,28,2.35,66,65.5,62,95,0.69,0.1,10,6,7,4414,3752,1151,15,125,53,20,0,97,1.5,9.5,7.33,3.1,837,180
2021/05/26 20:44,99,95,5,91,85,45,27,1.96,66,65.5,60,111,0.69,1.6,9,6,6,4398,3731,1151,15,127,53,20,0,97,1.5,9.5,7.44,3.1,837,180
2021/05/26 20:46,99,95,5,91,86,45,27,1.83,64,65.5,60,111,0.67,-1,9,6,6,4393,3725,1144,15,129,53,20,0,97,1.5,9.5,7.45,3.1,837,180
2021/05/26 20:48,99,95,4,89,81,40,25,1.51,59,64.0,60,111,0.77,1.3,9,6,6,4383,3720,1144,15,129,53,20,0,92,1.5,9.5,7.48,3.1,837,180
2021/05/26 20:50,98,95,4,88,79,41,25,1.44,57,64.0,60,111,0.77,-1,9,6,6,4358,3707,1137,15,131,53,20,0,94,1.5,9.5,7.6,3.1,837,180
2021/05/26 20:52,99,95,4,88,80,39,25,1.51,57,62.5,60,109,0.77,0.8,9,6,6,4358,3707,1137,14,131,53,20,0,95,1.5,9.5,7.62,3.1,837,180
2021/05/26 20:54,99,95,4,87,79,38,23,1.51,57,61.5,60,109,0.77,0,9,6,6,4336,3705,1137,14,132,53,20,0,91,1.5,9.5,7.69,3.1,837,180
2021/05/26 20:56,98,95,5,87,81,36,23,1.61,58,61.5,60,97,0.77,0.1,9,6,7,4353,3720,1137,14,130,53,20,0,92,1.5,9.5,7.78,3.1,837,180
2021/05/26 20:58,98,95,10,91,82,44,29,1.61,62,63.0,60,97,0.77,0,11,7,7,4336,3707,1136,14,130,53,20,0,91,1.5,9.6,7.84,3.0,855,178
2021/05/26 21:00,98,95,16,92,85,41,27,1.77,62,63.0,60,83,0.77,1.0,10,7,7,3576,3437,961,23,163,57,24,0,91,1.7,9.7,7.85,3.7,916,227
2021/05/26 21:02,98,95,16,91,84,39,26,1.95,63,63.0,60,84,0.77,0.0,10,7,6,3576,3437,956,22,162,57,24,0,88,1.7,9.7,7.88,3.7,916,227
2021/05/26 21:04,98,95,12,90,84,38,27,1.95,64,62.0,60,84,0.77,-1,10,7,6,3576,3437,956,22,162,57,24,0,91,1.7,9.7,7.89,3.7,916,227
2021/05/26 21:06,99,95,7,90,84,36,22,2.1,65,62.5,62,84,0.77,0.6,8,6,6,3549,3437,951,22,162,57,23,0,91,1.7,9.9,7.93,3.7,891,227
2021/05/26 21:08,99,95,7,91,85,41,23,2.31,68,63.0,62,84,0.77,0.1,8,6,6,3547,3437,951,22,161,57,23,0,96,1.7,9.9,7.96,3.7,891,227
2021/05/26 21:10,98,95,10,93,87,51,23,2.31,68,64.0,62,84,0.77,1.1,11,6,6,3540,3435,947,22,161,58,23,0,96,1.7,9.9,8.02,3.7,891,227
2021/05/26 21:12,98,95,27,93,88,53,30,2.31,71,64.0,60,84,0.77,-1,12,8,8,3538,3435,945,22,159,57,23,0,97,1.7,9.9,8.07,3.7,891,227
2021/05/26 21:14,98,95,27,94,88,53,30,2.09,71,64.0,60,84,0.77,0.9,12,8,8,3525,3435,940,21,158,57,23,0,97,1.7,10.1,8.12,3.7,891,227
2021/05/26 21:16,98,95,45,94,88,61,38,1.76,71,63.5,60,84,0.77,-1,16,8,9,3504,3430,935,21,158,57,23,0,96,1.7,10.1,8.15,3.7,891,227
2021/05/26 21:18,98,95,45,93,87,55,35,1.72,68,61.5,60,81,0.77,0,16,8,8,3489,3429,930,21,157,57,23,0,97,1.7,10.1,8.16,3.7,891,227
2021/05/26 21:20,97,95,43,93,87,53,34,1.63,65,61.5,60,94,0.65,1.8,16,8,6,3485,3426,927,21,156,57,23,0,97,1.7,10.2,8.19,3.7,891,227
2021/05/26 21:22,98,95,22,90,84,45,30,1.68,65,62.5,60,94,0.62,-1,13,7,6,3428,3388,920,21,156,57,23,0,96,1.6,10.3,8.21,3.7,891,227
2021/05/26 21:24,99,95,8,93,87,53,24,2.0,66,62.5,60,94,0.48,0.3,10,6,6,3428,3388,921,21,155,57,23,0,99,1.6,10.3,8.26,3.7,891,227
2021/05/26 21:26,99,95,6,91,86,43,23,2.07,66,62.5,61,94,0.48,1.1,10,6,6,3417,3369,914,21,154,57,23,0,98,1.6,10.3,8.26,3.7,891,227
2021/05/26 21:28,99,95,6,91,86,44,23,2.07,66,62.5,61,94,0.48,-1,10,6,5,3412,3359,914,21,154,57,23,0,98,1.6,10.4,8.32,3.7,891,227
2021/05/26 21:30,99,95,5,91,87,43,23,2.07,66,62.5,60,94,0.48,0.7,9,5,6,3428,3388,917,21,152,56,23,0,98,1.6,10.4,8.37,3.7,891,227
2021/05/26 21:32,99,95,7,93,87,53,24,1.85,67,62.5,60,94,0.48,0,12,5,6,3433,3388,917,21,151,56,23,0,99,1.6,10.4,8.43,3.7,891,227
2021/05/26 21:34,99,95,7,93,88,54,24,1.97,67,62.5,60,86,0.46,1.3,10,5,5,3433,3388,914,20,151,56,23,0,99,1.6,10.5,8.47,3.7,891,227
2021/05/26 21:36,99,95,6,92,86,51,24,1.97,67,62.5,60,86,0.46,0,7,5,5,3428,3369,911,21,150,56,23,0,99,1.6,10.5,8.51,3.7,891,227
2021/05/26 21:38,99,95,4,90,82,44,21,1.97,67,63.5,61,86,0.46,0,6,5,5,3428,3350,911,21,150,56,23,0,100,1.6,10.5,8.54,3.7,891,227
2021/05/26 21:40,98,95,2,89,82,41,19,1.84,65,64.0,61,86,0.46,0,6,5,4,3417,3350,903,20,149,56,23,0,100,1.6,10.5,8.55,3.7,891,227
2021/05/26 21:42,97,92,2,88,84,38,19,1.77,64,64.0,62,60,0.46,0.2,6,5,4,3390,3336,900,20,149,56,23,0,99,1.6,10.5,8.57,3.7,891,227
2021/05/26 21:44,97,87,1,88,80,37,18,1.84,61,64.0,62,55,0.46,0.4,6,4,4,3376,3328,896,21,149,55,23,0,99,1.6,10.5,8.55,2.7,927,182
2021/05/26 21:46,97,87,2,90,84,40,20,1.89,59,64.0,62,56,0.46,0.0,8,4,5,3376,3318,895,21,147,55,23,0,99,1.6,10.5,8.57,2.7,927,182
2021/05/26 21:48,98,92,2,91,85,44,22,1.89,57,65.0,64,82,0.46,3.7,8,5,6,3376,3316,895,21,147,54,23,0,99,1.6,10.5,8.61,2.7,927,176
2021/05/26 21:50,98,92,4,93,86,56,26,1.89,57,65.0,63,82,0.46,-3,11,5,6,3376,3316,895,20,146,54,22,0,99,1.6,10.5,8.63,2.7,927,176
2021/05/26 21:52,98,95,12,93,87,57,34,1.89,60,65.0,62,82,0.46,0.2,12,7,8,3376,3287,895,20,145,54,22,0,99,1.6,10.5,8.69,2.7,927,176
2021/05/26 21:54,98,95,23,94,87,57,36,2.0,60,65.0,63,82,0.46,0,13,8,9,3390,3287,899,20,143,52,22,0,99,1.6,10.5,8.74,2.7,927,176
2021/05/26 21:56,98,95,23,94,87,56,35,2.0,61,66.5,63,78,0.46,1.6,11,8,9,3404,3287,923,20,142,52,22,0,99,1.6,10.6,8.77,2.7,927,176
2021/05/26 21:58,98,95,23,94,88,58,36,2.0,61,66.5,63,78,0.46,0,10,8,9,3433,3287,931,19,140,52,22,0,99,1.6,10.6,8.77,2.7,927,176
2021/05/26 22:00,99,95,22,94,88,57,29,1.95,61,66.5,62,83,0.5,1.2,11,9,9,3417,3281,931,19,139,51,22,0,99,1.6,10.6,8.7,3.3,869,251
2021/05/26 22:02,98,95,39,94,87,57,35,1.88,57,65.0,62,83,0.5,-1,14,9,9,3195,2910,880,23,183,54,26,0,99,1.6,10.6,8.76,3.3,869,251
2021/05/26 22:04,98,95,42,95,85,60,37,1.85,56,66.0,62,83,0.5,0,15,9,8,3172,2881,880,23,183,53,26,0,99,1.6,10.6,8.7,3.3,869,251
2021/05/26 22:06,98,95,55,95,88,62,46,1.77,56,66.0,62,83,0.5,0.6,15,11,8,3199,2911,880,23,176,53,26,0,99,1.6,10.6,8.66,2.5,1052,225
2021/05/26 22:08,97,95,49,94,87,59,43,1.77,57,66.0,60,62,0.5,0,15,11,8,3204,2911,880,23,173,53,26,0,99,1.6,10.6,8.63,2.5,1052,225
2021/05/26 22:10,98,95,49,94,87,59,43,1.76,57,64.5,61,63,0.5,0.6,15,11,7,3193,2898,880,22,171,53,26,0,99,1.6,10.6,8.56,2.5,1052,225
2021/05/26 22:12,97,95,38,94,86,59,42,1.69,59,65.0,61,66,0.5,0.2,14,10,8,3179,2881,874,22,168,53,26,0,99,1.6,10.6,8.52,2.5,1052,225
2021/05/26 22:14,98,95,38,94,88,63,43,1.81,59,65.0,61,72,0.5,0.6,14,10,7,3148,2872,865,22,168,52,26,0,99,1.6,10.6,8.45,2.5,1052,225
2021/05/26 22:16,99,95,38,95,89,63,43,2.14,63,65.0,64,72,0.5,0,14,10,7,3112,2842,860,22,167,52,26,0,99,1.6,10.6,8.36,2.5,1052,225
2021/05/26 22:18,99,95,31,95,89,64,40,2.26,66,65.0,64,94,0.53,3.5,13,10,7,3112,2842,859,22,163,52,26,0,99,1.6,10.6,8.33,2.5,1052,225
2021/05/26 22:20,99,95,29,95,90,64,40,2.26,66,65.5,64,94,0.53,-2,13,10,7,3102,2832,860,22,159,52,26,0,99,1.6,10.6,8.27,2.5,1052,225
2021/05/26 22:22,99,95,32,95,89,63,39,2.3,66,66.0,66,94,0.53,0.2,13,10,8,3078,2810,860,22,154,52,26,0,98,1.6,10.6,8.2,2.5,1052,225
2021/05/26 22:24,99,95,20,96,90,64,27,2.53,66,68.0,66,94,0.53,0.4,12,8,7,3062,2794,873,22,154,52,26,0,98,1.6,10.6,8.1,2.8,869,227
2021/05/26 22:26,99,95,21,96,90,64,27,2.61,68,68.0,66,99,0.57,1.4,12,8,7,3055,2782,873,22,152,52,26,0,98,1.6,10.6,8.06,2.8,869,227
2021/05/26 22:28,99,95,14,94,87,56,24,2.7,68,68.0,66,99,0.59,-1,12,7,5,3055,2782,874,22,149,51,26,0,95,1.6,10.6,7.99,2.8,869,227
2021/05/26 22:30,99,95,14,94,87,55,30,2.76,70,67.5,65,99,0.59,0,12,7,5,3062,2784,887,21,148,51,26,0,95,1.6,10.6,7.89,2.2,1052,206
2021/05/26 22:32,99,95,5,94,87,59,19,2.76,70,67.5,65,99,0.59,0.2,11,5,5,3055,2782,884,21,145,51,26,0,98,1.6,10.7,7.84,2.8,869,227
2021/05/26 22:34,98,95,5,94,87,61,19,2.76,75,67.5,64,71,0.59,0,9,5,5,3055,2782,890,21,144,51,26,0,98,1.6,10.7,7.76,2.2,856,206
2021/05/26 22:36,98,95,6,95,88,63,20,2.76,75,67.5,64,61,0.59,0,6,5,6,3005,2703,890,21,143,50,26,0,98,1.6,10.7,7.73,2.2,856,206
2021/05/26 22:38,98,95,4,94,88,62,21,2.55,75,67.5,64,61,0.59,0,6,5,6,3025,2703,890,21,140,50,26,0,98,1.6,10.7,7.69,2.2,856,206
2021/05/26 22:40,99,95,3,93,88,54,17,2.47,74,67.0,64,122,0.73,13.0,6,5,6,2800,2591,813,20,129,50,25,0,98,1.6,10.7,7.62,1.4,856,163
2021/05/26 22:42,99,95,4,93,88,60,19,2.33,71,67.0,61,122,0.73,-1,6,5,6,2799,2519,810,20,129,50,25,0,98,1.6,10.7,7.6,1.4,856,163
2021/05/26 22:44,99,95,2,93,87,60,15,2.02,69,66.5,61,122,0.73,0,8,4,6,2799,2519,810,20,126,50,25,0,97,1.6,10.7,7.58,1.3,822,161
2021/05/26 22:46,99,95,3,93,85,61,19,1.81,68,66.5,60,122,0.73,0.1,9,5,6,2807,2591,829,20,124,50,25,0,97,1.6,10.7,7.54,1.3,822,161
2021/05/26 22:48,97,95,3,92,84,60,19,1.67,66,65.5,60,85,0.73,0,9,5,6,2821,2592,833,20,123,50,25,0,98,1.6,10.7,7.51,1.3,822,161
2021/05/26 22:50,98,95,3,93,84,60,19,1.62,67,65.5,60,121,0.73,1.1,9,5,5,2865,2592,840,19,122,50,25,0,98,1.6,10.7,7.43,1.3,822,161
2021/05/26 22:52,97,95,3,92,81,57,16,1.57,67,64.5,59,121,0.73,-1,9,4,5,2828,2591,833,19,120,50,24,0,94,1.7,10.7,7.4,1.3,822,161
2021/05/26 22:54,97,92,2,89,79,59,16,1.48,67,63.5,59,121,0.73,0.1,7,4,5,2865,2591,833,19,120,49,24,0,95,1.7,10.8,7.38,1.3,822,161
2021/05/26 22:56,97,92,2,90,79,58,16,1.47,62,62.5,58,121,0.74,1.6,7,4,4,2865,2591,833,19,118,49,24,0,96,1.7,10.8,7.33,1.3,822,161
2021/05/26 22:58,97,92,2,88,79,57,14,1.46,64,63.0,59,119,0.74,-1,8,4,4,2870,2591,833,19,117,49,24,0,98,1.7,10.8,7.29,1.3,822,161
2021/05/26 23:00,97,95,4,90,78,55,18,1.46,64,63.0,58,119,0.74,0.8,9,6,6,2631,2427,694,46,164,56,26,0,96,1.5,10.8,7.29,2.3,736,213
2021/05/26 23:02,97,95,4,90,78,58,19,1.46,64,63.0,58,119,0.74,0,8,6,6,2650,2435,699,46,161,56,26,0,96,1.5,10.8,7.25,2.3,736,213
2021/05/26 23:04,97,95,33,91,78,61,34,1.46,62,62.5,60,106,0.74,0.4,18,9,7,2650,2435,699,44,160,56,26,0,96,1.5,10.8,7.22,2.3,736,213
2021/05/26 23:06,97,95,35,91,79,63,34,1.46,62,62.0,58,106,0.74,0,18,9,7,2650,2449,707,42,155,55,26,0,96,1.5,10.8,7.11,2.3,736,213
2021/05/26 23:08,95,95,36,91,79,63,33,1.42,62,61.5,58,88,0.74,0,18,9,7,2668,2449,715,41,154,55,26,0,96,1.5,10.8,7.02,2.3,736,213
2021/05/26 23:10,95,95,23,91,80,62,28,1.41,62,61.5,58,88,0.74,0.0,15,8,7,2668,2449,715,41,154,55,26,0,97,1.5,10.8,6.99,2.3,736,213
2021/05/26 23:12,95,95,22,90,80,62,29,1.41,60,61.5,58,70,0.74,1.0,15,8,7,2631,2432,715,41,149,55,26,0,97,1.5,10.8,6.97,2.3,750,213
2021/05/26 23:14,94,95,22,90,79,62,29,1.36,60,61.5,58,72,0.74,0.1,10,8,7,2631,2416,715,41,149,55,26,0,98,1.5,10.8,6.94,2.3,750,213
2021/05/26 23:16,93,95,30,92,80,65,34,1.31,58,63.0,57,72,0.74,-1,13,10,7,2613,2391,715,41,149,55,26,0,98,1.5,10.8,6.96,2.3,750,213
2021/05/26 23:18,93,95,27,90,80,66,34,1.29,55,63.0,58,72,0.74,0.7,13,10,7,2577,2349,715,40,147,55,26,0,99,1.5,10.8,6.9,2.0,750,191
2021/05/26 23:20,96,95,27,92,81,64,34,1.55,62,63.0,60,72,0.74,0,13,10,7,2577,2346,715,40,145,55,26,0,99,1.5,10.8,6.89,2.0,750,191
2021/05/26 23:22,94,95,20,90,79,56,27,1.55,64,61.0,58,63,0.74,0.7,11,8,8,2553,2332,719,40,144,55,25,0,98,1.6,10.8,6.86,1.7,750,191
2021/05/26 23:24,96,95,18,90,80,56,27,1.55,64,61.0,58,93,0.83,2.2,10,7,8,2537,2318,728,40,143,56,25,0,98,1.6,10.9,6.84,1.7,750,191
2021/05/26 23:26,95,95,16,91,81,59,25,1.5,64,61.0,58,93,0.83,-1,10,7,7,2553,2318,728,38,141,56,25,0,98,1.6,10.9,6.76,1.7,750,191
2021/05/26 23:28,94,95,16,89,79,56,24,1.32,60,61.0,57,93,0.83,1.5,8,7,7,2537,2296,728,38,139,56,25,0,97,1.6,10.9,6.74,1.7,750,191
2021/05/26 23:30,93,95,11,88,78,61,24,1.28,58,60.5,57,93,0.83,-1,8,7,7,2553,2293,732,38,138,56,25,0,97,1.6,10.9,6.68,1.7,750,191
2021/05/26 23:32,88,95,7,85,68,58,20,1.09,52,60.5,55,92,0.83,0.5,9,7,6,2553,2293,741,36,136,56,25,0,98,1.6,10.9,6.6,1.7,750,191
2021/05/26 23:34,84,95,8,81,63,58,19,1.0,45,60.0,55,92,0.83,0,9,7,6,2577,2293,747,35,133,56,25,0,98,1.6,10.9,6.49,1.7,750,191
2021/05/26 23:36,74,94,6,79,60,58,19,0.88,42,60.5,54,64,0.83,0.0,9,7,5,2553,2293,747,35,133,56,25,0,97,1.6,10.9,6.47,1.7,750,191
2021/05/26 23:38,76,94,6,79,60,59,16,0.82,40,60.5,54,71,0.83,0.9,9,7,6,2547,2256,751,35,131,56,24,0,96,1.6,10.9,6.46,1.7,750,191
2021/05/26 23:40,76,91,5,79,58,59,14,0.8,38,60.5,54,71,0.83,0,10,6,6,2537,2239,751,35,129,56,24,0,95,1.6,10.9,6.46,1.7,750,191